"Pseudo-MPEC" for CEGUHK2

Created 2026 Apr 9 7:35:07 UT using Find_Orb

Click here for an explanation of pseudo-MPECs

 
 Astrometry: 
     CEGUHK2 1C2026 03 22.24582510 24 31.342-20 24 29.70   ~497Z 20.64GVNEOCPG96
     CEGUHK2 1C2026 03 22.25142610 24 35.413-20 24 20.70   ~497Z 21.02GVNEOCPG96
     CEGUHK2 1C2026 03 22.25704310 24 39.463-20 24 10.51   ~497Z 21.60GVNEOCPG96
     CEGUHK2 1C2026 03 22.26266710 24 43.643-20 23 58.56   ~497Z 20.67GVNEOCPG96
     CEGUHK2*1C2026 04 08.32435113 44 55.972-05 19 52.57   ~488o 21.97GVNEOCPG96
     CEGUHK2 1C2026 04 08.33005013 44 58.319-05 19 35.65   ~488o 20.79GVNEOCPG96
     CEGUHK2 1C2026 04 08.33570913 45 00.724-05 19 19.67   ~488o 20.25GVNEOCPG96
     CEGUHK2 1C2026 04 08.34138713 45 03.110-05 19 03.07   ~488o 21.24GVNEOCPG96
     CEGUHK2 1C2026 04 08.41656013 45 34.513-05 15 27.68   ~48AZ 21.00GVNEOCPI52
     CEGUHK2 1C2026 04 08.42044313 45 36.169-05 15 16.02   ~48AZ 21.17GVNEOCPI52
     CEGUHK2 1C2026 04 08.42432313 45 37.753-05 15 04.46   ~48AZ 20.75GVNEOCPI52
     CEGUHK2 KB2026 04 08.99148213 49 52.99 -04 48 48.4    ~490Z 20.4 GVNEOCPI93
     CEGUHK2 KB2026 04 08.99747213 49 55.42 -04 48 31.7    ~490Z 20.6 GVNEOCPI93
     CEGUHK2 KB2026 04 09.00322513 49 57.75 -04 48 16.4    ~490Z 20.7 GVNEOCPI93
     CEGUHK2 |C2026 04 09.09687013 50 41.640-04 41 57.30   ~4935 21.2 GVNEOCP807
     CEGUHK2 |C2026 04 09.10159013 50 43.540-04 41 44.60   ~4935 21.1 GVNEOCP807
     CEGUHK2 |C2026 04 09.10630013 50 45.430-04 41 31.70   ~4935 20.9 GVNEOCP807
     CEGUHK2 KC2026 04 09.23977213 51 39.65 -04 37 22.2    ~496K 20.8 GVNEOCPH21
     CEGUHK2 KC2026 04 09.24256613 51 40.72 -04 37 14.5    ~496K 21.5 GVNEOCPH21

Station data:
(807) Cerro Tololo Observatory, La Serena  (S30.169133 W70.805900)  Chile.
   Observer R. Holmes. 0.61-m f/6.5 astrograph + CCD.
(G96) Mt. Lemmon Survey  (N32.442729 W110.788720)  US/Arizona.  Observer E.
   J. Christensen. Measurers T. Beuden, V. F. Carvajal, D. Fay, J. B.
   Fazekas, D. C. Fuls, A. R. Gibbs, A. D. Grauer, H. Gröller, J. K. Hogan,
   R. A. Kowalski, S. M. Larson, G. J. Leonard, D. Rankin, R. L. Seaman, F.
   C. Shelly, K. W. Wierzchoś. 1.5-m reflector + 10K CCD.
(H21) Astronomical Research Observatory, Westfield  (N39.483054 W87.968270)
   US/Illinois.  Observer R. Holmes. Measurers S. Foglia, L. Buzzi, T.
   Linder, R. Holmes. 0.40-m f/5.32 astrograph + CCD.
(I52) Steward Observatory, Mt. Lemmon Station  (N32.442570 W110.788920)
   US/Arizona. Measurers T. Beuden, V. F. Carvajal, D. Fay, J. B. Fazekas, D.
   C. Fuls, A. R. Gibbs, A. D. Grauer, H. Gröller, J. K. Hogan, R. A.
   Kowalski, S. M. Larson, G. J. Leonard, D. Rankin, R. L. Seaman, F. C.
   Shelly, K. W. Wierzchoś. 1.0-m prime focus + CCD.
(I93) St Pardon de Conques  (N44.558670 W0.202960)  France.  Observers F.
   Losse, W. D'Anna. Measurer F. Losse. 0.40-m f/3.7 reflector + CCD.

Orbital elements:  CEGUHK2
   Perihelion 2026 Mar 16.892731 +/- 0.00927 TT = 21:25:31.9 (JD 2461116.392731)
Epoch 2026 Apr  9.0 TT = JDT 2461139.5   Earth MOID: 0.0656      AutoNEOCP
M   7.842208734 +/- 0.041           (J2000 ecliptic)
n   0.339382758 +/- 0.00167         Peri.  339.042238 +/- 0.0045
a   2.035523868 +/- 0.00666         Node   195.333358 +/- 0.0012
e   0.48245344 +/- 0.00161          Incl.    6.755870 +/- 0.016
P   2.90412                H 25.75  G  0.15   U  8.4
q 1.053478357 +/- 0.000174    Q 3.017569379 +/- 0.0131
From 19 observations 2026 Mar. 22-Apr. 9; mean residual 0".39
Residuals in arcseconds: 
260322 G96  .05+  .03-    260408 G96  .43+  .25+    260409 807  .27+  .05-    
260322 G96  .04-  .84-    260408 I52  .05-  .71-    260409 807  .13+  .12-    
260322 G96  .60-  .54-    260408 I52  .32+  .25-    260409 807  .02-  .04+    
260322 G96  .58+  1.4+    260408 I52  .39-  .12+    260409 H21  .10+  .17+    
260408 G96  .16+  .33-    260408 I93  .27-  .14+    260409 H21  .35-  .30+    
260408 G96  .38-  .23+    260408 I93  .11-  .36+    
260408 G96  .22+  .04-    260409 I93  .03+  .18-    

Ephemerides (geocentric):
Date (UTC) HH   RA             Dec           delta  r     elong  mag " sig PA
---- --------  ------------   ------------  ------ ------ -----  --- --------
2026 04 09 08  13 52 18.231   -04 31 59.47  .08779 1.0879 169.2 21.3 .178 124
2026 04 09 09  13 52 35.824   -04 30 07.16  .08791 1.0880 169.2 21.3 .185 122
2026 04 09 10  13 52 53.363   -04 28 15.15  .08803 1.0881 169.1 21.3 .192 120
2026 04 09 11  13 53 10.849   -04 26 23.43  .08815 1.0882 169.1 21.3 .200 118
2026 04 09 12  13 53 28.282   -04 24 32.01  .08827 1.0883 169.0 21.3 .207 116
2026 04 09 13  13 53 45.662   -04 22 40.88  .08839 1.0885 169.0 21.3 .215 114
2026 04 09 14  13 54 02.989   -04 20 50.04  .08852 1.0886 168.9 21.3 .223 113
2026 04 09 15  13 54 20.263   -04 18 59.50  .08864 1.0887 168.9 21.3 .231 111
2026 04 09 16  13 54 37.484   -04 17 09.25  .08876 1.0888 168.8 21.3 .240 110
2026 04 09 17  13 54 54.652   -04 15 19.30  .08888 1.0889 168.8 21.3 .248 109
2026 04 09 18  13 55 11.769   -04 13 29.63  .08901 1.0891 168.8 21.3 .257 107
2026 04 09 19  13 55 28.833   -04 11 40.27  .08913 1.0892 168.7 21.3 .266 106
2026 04 09 20  13 55 45.844   -04 09 51.19  .08925 1.0893 168.7 21.3 .275 105
2026 04 09 21  13 56 02.804   -04 08 02.41  .08938 1.0894 168.6 21.4 .284 104
2026 04 09 22  13 56 19.712   -04 06 13.92  .08950 1.0895 168.6 21.4 .293 103
2026 04 09 23  13 56 36.568   -04 04 25.73  .08963 1.0897 168.5 21.4 .302 103
2026 04 10 00  13 56 53.372   -04 02 37.82  .08975 1.0898 168.5 21.4 .312 102
2026 04 10 01  13 57 10.124   -04 00 50.21  .08988 1.0899 168.4 21.4 .321 101
2026 04 10 02  13 57 26.826   -03 59 02.89  .09000 1.0900 168.4 21.4 .331 100
2026 04 10 03  13 57 43.476   -03 57 15.87  .09013 1.0902 168.4 21.4 .341  99
2026 04 10 04  13 58 00.074   -03 55 29.13  .09025 1.0903 168.3 21.4 .350  99
2026 04 10 05  13 58 16.622   -03 53 42.69  .09038 1.0904 168.3 21.4 .360  98
2026 04 10 06  13 58 33.119   -03 51 56.54  .09050 1.0905 168.2 21.4 .370  98
2026 04 10 07  13 58 49.565   -03 50 10.68  .09063 1.0906 168.2 21.4 .380  97
2026 04 10 08  13 59 05.961   -03 48 25.11  .09076 1.0908 168.1 21.4 .390  96
2026 04 10 09  13 59 22.306   -03 46 39.84  .09088 1.0909 168.1 21.4 .400  96
2026 04 10 10  13 59 38.600   -03 44 54.85  .09101 1.0910 168.0 21.4 .411  95
2026 04 10 11  13 59 54.844   -03 43 10.16  .09114 1.0911 168.0 21.4 .421  95
2026 04 10 12  14 00 11.038   -03 41 25.75  .09126 1.0913 168.0 21.4 .431  95
2026 04 10 13  14 00 27.183   -03 39 41.63  .09139 1.0914 167.9 21.4 .441  94
2026 04 10 14  14 00 43.277   -03 37 57.81  .09152 1.0915 167.9 21.4 .452  94
2026 04 10 15  14 00 59.321   -03 36 14.27  .09165 1.0916 167.8 21.4 .462  93
2026 04 10 16  14 01 15.316   -03 34 31.03  .09178 1.0918 167.8 21.4 .473  93
2026 04 10 17  14 01 31.262   -03 32 48.07  .09191 1.0919 167.7 21.4 .484  93
2026 04 10 18  14 01 47.158   -03 31 05.40  .09203 1.0920 167.7 21.5 .494  92
2026 04 10 19  14 02 03.005   -03 29 23.02  .09216 1.0921 167.7 21.5 .505  92
2026 04 10 20  14 02 18.803   -03 27 40.93  .09229 1.0923 167.6 21.5 .516  92
2026 04 10 21  14 02 34.551   -03 25 59.12  .09242 1.0924 167.6 21.5 .526  91
2026 04 10 22  14 02 50.251   -03 24 17.61  .09255 1.0925 167.5 21.5 .537  91
2026 04 10 23  14 03 05.903   -03 22 36.38  .09268 1.0926 167.5 21.5 .548  91
2026 04 11 00  14 03 21.506   -03 20 55.43  .09281 1.0928 167.5 21.5 .559  90
2026 04 11 01  14 03 37.060   -03 19 14.78  .09294 1.0929 167.4 21.5 .570  90
2026 04 11 02  14 03 52.566   -03 17 34.41  .09307 1.0930 167.4 21.5 .581  90
2026 04 11 03  14 04 08.024   -03 15 54.33  .09320 1.0931 167.3 21.5 .592  90
2026 04 11 04  14 04 23.433   -03 14 14.53  .09333 1.0933 167.3 21.5 .603  89
2026 04 11 05  14 04 38.795   -03 12 35.02  .09346 1.0934 167.3 21.5 .614  89
2026 04 11 06  14 04 54.109   -03 10 55.79  .09360 1.0935 167.2 21.5 .626  89
2026 04 11 07  14 05 09.376   -03 09 16.85  .09373 1.0937 167.2 21.5 .637  89